Regional Weather Roundup
Issued by NWS

Home | Current Version | Previous Version | Text Only | Print | Product List | Glossary Off
Versions: 1 2 3 4 5 6 7 8 9 10 11 12 13 14 15 16 17 18 19 20 21 22 23 24 25 26 27 28 29 30 31 32 33 34 35 36 37 38 39 40 41 42 43 44 45 46 47 48 49 50

000
ASUS43 KFSD 191610
RWRSD

WEATHER ROUNDUP FOR SOUTH DAKOTA
NATIONAL WEATHER SERVICE SIOUX FALLS SD
1100 AM CDT THU OCT 19 2017

NOTE: "FAIR" INDICATES FEW OR NO CLOUDS BELOW 12,000 FEET WITH NO
SIGNIFICANT WEATHER AND/OR OBSTRUCTIONS TO VISIBILITY.


SDZ001>005-009-010-012>017-191700-
NORTHWEST AND NORTH CENTRAL SOUTH DAKOTA

CITY           SKY/WX    TMP DP  RH WIND       PRES   REMARKS
BUFFALO          N/A     61  30  31 SW5       29.78S
FAITH            N/A     61  31  32 SW10      29.84S
MOBRIDGE       SUNNY     57  41  55 S12       29.82F
$$

SDZ012>016-024>037-041>051-057-063-072>074-191700-
SOUTHWEST AND SOUTH CENTRAL SOUTH DAKOTA

CITY           SKY/WX    TMP DP  RH WIND       PRES   REMARKS
RAPID CTY ARPT SUNNY     69  24  18 NW5       29.87F
PIERRE         SUNNY     59  40  49 SE9       29.86F
CUSTER         SUNNY     60  17  18 W12       30.01R
ELLSWORTH AFB  SUNNY     69  27  21 SW3       29.87S
PHILIP         SUNNY     66  35  31 SW13      29.86F
PINE RIDGE     SUNNY     62  32  32 S9        29.95F
SPEARFISH      FAIR      64  28  25 CALM      29.90R
WINNER         FAIR      62  40  44 S23G32    29.91F
$$

SDZ004>011-016>023-039-040-191700-
NORTHEAST SOUTH DAKOTA

CITY           SKY/WX    TMP DP  RH WIND       PRES   REMARKS
ABERDEEN       SUNNY     57  36  45 S20G26    29.88F
WATERTOWN      SUNNY     60  41  49 S15G24    29.94F
BROOKINGS      SUNNY     58  37  45 S15       30.01F
SISSETON         N/A     66  37  34 S21G32    29.88S
$$

SDZ017-020-022-023-036>040-048>070-191700-
SOUTHEAST SOUTH DAKOTA

CITY           SKY/WX    TMP DP  RH WIND       PRES   REMARKS
SIOUX FALLS    MOSUNNY   61  39  44 S15       30.04S
HURON          SUNNY     57  38  48 S12       29.94F
CHAMBERLAIN    SUNNY     66  41  40 S16G24    29.93F
MITCHELL       SUNNY     60  40  47 S15       29.98F
YANKTON        SUNNY     57  45  64 E7        30.03F
$$

ABBREVIATIONS USED IN REMARKS
   TC - TEMPERATURE IN CELSIUS
  WCI - WIND CHILL INDEX
   HX - HEAT INDEX
  VSB - VISIBILITY




USA.gov is the U.S. government's official web portal to all federal, state and local government web resources and services.